S54MI-13 Weather Reports


time (UTC)temp
C
wind
direction
speed
KPH
gust
KPH
rain 1hr
cm
rain 24hr
cm
rain mn
cm
humidity
%
barometer
mb
20260906052822 22 90 1.6 3.2 0.00 0.00 0.00 58
20260906051628 22 92 1.6 3.2 0.00 0.00 0.00 58
20260906050437 22 87 1.6 3.2 0.00 0.00 0.00 58
20260906045226 22 90 1.6 3.2 0.00 0.00 0.00 58
20260906044018 22 90 1.6 4.8 0.00 0.00 0.00 58
20260906042906 22 100 1.6 4.8 0.00 0.00 0.00 59
20260906041631 22 90 0.0 4.8 0.00 0.00 0.00 59
20260906040422 22 90 3.2 3.2 0.00 0.00 0.00 59
20260906035228 22 90 1.6 3.2 0.00 0.00 0.00 60
20260906034034 -17 78 1.6 4.8 0.00 0.00 0.00
20260906032819 21 0.0 1.6 0.00 0.00 0.00 61
20260906031632 22 90 0.0 3.2 0.00 0.00 0.00 61
20260906030428 22 90 1.6 1.6 0.00 0.00 0.00 61
20260906025254 22 119 1.6 4.8 0.00 0.00 0.00 60
20260906024022 22 90 0.0 1.6 0.00 0.00 0.00 60
20260906022914 -17 94 1.6 1.6 0.00 0.00 0.00
20260906021620 -17 0.0 0.0 0.00 0.00 0.00
20260906020418 22 0.0 0.0 0.00 0.00 0.00 61
20260906015247 22 0.0 0.0 0.00 0.00 0.00 62
20260906014024 22 0.0 0.0 0.00 0.00 0.00 62
20260906012816 22 0.0 0.0 0.00 0.00 0.00 63
20260906011642 22 0.0 0.0 0.00 0.00 0.00 63
20260906010420 22 0.0 0.0 0.00 0.00 0.00 65
20260906005220 22 0.0 0.0 0.00 0.00 0.00 65
20260906004046 22 0.0 0.0 0.00 0.00 0.00 65
20260906002820 22 0.0 0.0 0.00 0.00 0.00 66
20260906001639 22 0.0 0.0 0.00 0.00 0.00 66
20260906000418 22 0.0 0.0 0.00 0.00 0.00 65
20260905235234 23 0.0 0.0 0.00 0.00 0.00 66
20260905234025 23 0.0 0.0 0.00 0.00 0.00 66
20260905232854 23 0.0 0.0 0.00 0.00 0.00 66
20260905231634 23 0.0 0.0 0.00 0.00 0.00 66
20260905230418 23 0.0 0.0 0.00 0.00 0.00 66
20260905225234 23 0.0 0.0 0.00 0.00 0.00 67
20260905224036 -17 0.0 1.6 0.00 0.00 0.00
20260905222832 23 100 3.2 4.8 0.00 0.00 0.00 67
20260905221629 23 97 3.2 4.8 0.00 0.00 0.00 67
20260905220430 23 93 3.2 4.8 0.00 0.00 0.00 68
20260905215226 23 96 3.2 6.4 0.00 0.00 0.00 69
20260905214018 23 90 3.2 6.4 0.00 0.00 0.00 73
20260905212824 23 180 0.0 3.2 0.00 0.00 0.00 75
20260905211644 23 0.0 1.6 0.00 0.00 0.00 78
20260905210422 23 0.0 1.6 0.00 0.00 0.00 80
20260905205242 23 0.0 0.0 0.00 0.00 0.00 81
20260905204102 24 0.0 0.0 0.00 0.00 0.00 80
20260905202840 24 0.0 0.0 0.00 0.00 0.00 80
20260905201638 24 0.0 0.0 0.00 0.00 0.00 80
20260905200438 24 0.0 0.0 0.00 0.00 0.00 79
20260905195232 24 0.0 0.0 0.00 0.00 0.00 80
20260905194022 24 0.0 0.0 0.00 0.00 0.00 79
20260905192828 24 0.0 0.0 0.00 0.00 0.00 79
20260905191638 24 0.0 0.0 0.00 0.00 0.00 78
20260905190449 25 0.0 1.6 0.00 0.00 0.00 78
20260905185219 25 0.0 0.0 0.00 0.00 0.00 77
20260905184039 25 0.0 0.0 0.00 0.00 0.00 76
20260905182837 25 0.0 0.0 0.00 0.00 0.00 76
20260905181704 25 0.0 0.0 0.00 0.00 0.00 75
20260905180432 25 0.0 0.0 0.00 0.00 0.00 75
20260905175220 26 0.0 0.0 0.00 0.00 0.00 74
20260905174026 26 0.0 3.2 0.00 0.00 0.00 72
20260905172818 27 0.0 0.0 0.00 0.00 0.00 70
20260905171638 -17 68 1.6 3.2 0.00 0.00 0.00
20260905170442 28 0.0 3.2 0.00 0.00 0.00 67
20260905165219 28 0.0 1.6 0.00 0.00 0.00 64
20260905164028 29 0 0.0 3.2 0.00 0.00 0.00 62
20260905162820 30 0 0.0 3.2 0.00 0.00 0.00 58
20260905161626 31 258 3.2 3.2 0.00 0.00 0.00 45
20260905160432 31 196 3.2 8.0 0.00 0.00 0.00 44
20260905155215 31 225 3.2 6.4 0.00 0.00 0.00 45
20260905154016 31 217 4.8 6.4 0.00 0.00 0.00 45
20260905152825 31 231 6.4 8.0 0.00 0.00 0.00 46
20260905151630 32 219 4.8 8.0 0.00 0.00 0.00 47
20260905150421 32 239 6.4 9.7 0.00 0.00 0.00 47
20260905145237 32 215 6.4 9.7 0.00 0.00 0.00 48
20260905144019 32 195 4.8 6.4 0.00 0.00 0.00 48
20260905142821 33 196 6.4 9.7 0.00 0.00 0.00 45
20260905141616 33 266 3.2 6.4 0.00 0.00 0.00 47
20260905140422 33 260 1.6 3.2 0.00 0.00 0.00 47
20260905135235 33 231 6.4 9.7 0.00 0.00 0.00 47
20260905134100 33 240 4.8 6.4 0.00 0.00 0.00 46
20260905132817 33 244 4.8 9.7 0.00 0.00 0.00 46
20260905131642 32 313 4.8 6.4 0.00 0.00 0.00 48
20260905130424 32 336 4.8 6.4 0.00 0.00 0.00 52
20260905125228 32 322 4.8 6.4 0.00 0.00 0.00 57
20260905124035 32 312 3.2 4.8 0.00 0.00 0.00 56
20260905122829 31 317 3.2 4.8 0.00 0.00 0.00 56
20260905121620 32 349 3.2 9.7 0.00 0.00 0.00 50
20260905120422 31 239 3.2 9.7 0.00 0.00 0.00 53
20260905115218 31 343 3.2 4.8 0.00 0.00 0.00 53
20260905114044 30 345 4.8 6.4 0.00 0.00 0.00 52
20260905112856 30 353 3.2 6.4 0.00 0.00 0.00 48
20260905111642 29 327 3.2 9.7 0.00 0.00 0.00 48
20260905110418 31 337 3.2 3.2 0.00 0.00 0.00 45
20260905105218 32 0 3.2 4.8 0.00 0.00 0.00 43
20260905104035 32 314 3.2 3.2 0.00 0.00 0.00 43
20260905102815 32 244 1.6 4.8 0.00 0.00 0.00 42
20260905101636 32 254 1.6 3.2 0.00 0.00 0.00 41
20260905100431 32 259 1.6 6.4 0.00 0.00 0.00 40
20260905095259 32 288 1.6 3.2 0.00 0.00 0.00 40
20260905094023 31 0 1.6 6.4 0.00 0.00 0.00 40
20260905092834 30 249 1.6 3.2 0.00 0.00 0.00 41
20260905091651 30 4 1.6 4.8 0.00 0.00 0.00 40
20260905090503 30 259 1.6 4.8 0.00 0.00 0.00 40
20260905085322 29 344 1.6 1.6 0.00 0.00 0.00 41
20260905084020 29 353 1.6 4.8 0.00 0.00 0.00 42
20260905082850 28 270 1.6 3.2 0.00 0.00 0.00 42
20260905081630 28 345 3.2 4.8 0.00 0.00 0.00 43
20260905080434 30 256 1.6 4.8 0.00 0.00 0.00 42
20260905075237 30 224 1.6 4.8 0.00 0.00 0.00 42
20260905074015 29 146 4.8 8.0 0.00 0.00 0.00 41
20260905072838 28 204 3.2 6.4 0.00 0.00 0.00 41
20260905071636 28 155 4.8 6.4 0.00 0.00 0.00 41
20260905070435 27 154 6.4 12.9 0.00 0.00 0.00 39
20260905065228 27 162 6.4 8.0 0.00 0.00 0.00 39
20260905064054 26 134 8.0 9.7 0.00 0.00 0.00 39
20260905062840 25 120 6.4 9.7 0.00 0.00 0.00 39
20260905061621 24 146 4.8 8.0 0.00 0.00 0.00 41
20260905060424 23 0.0 0.0 0.00 0.00 0.00 42
20260905055216 23 0.0 0.0 0.00 0.00 0.00 41
20260905054022 22 0.0 0.0 0.00 0.00 0.00 41